Location: Beuvrequen
(50.8014°N, 1.6652°E)
Time: 03:54:59
(UTC+00:00)

Timation 2 Rocket - Pass Details

Date: 16 October 2021
Orbit: 904 x 1077 km, 70.0° (Epoch: 05 December)

Event Time Altitude Azimuth Distance (km) Brightness Sun altitude
Rises 17:45:49 0° 327° (NNW) 3,883 7.6 -8.2°
Reaches altitude 10° 17:48:28 10° 326° (NW) 2,926 6.9 -8.6°
Maximum altitude 17:55:22 75° 243° (WSW) 1,110 4.5 -9.7°
Drops below altitude 10° 18:02:06 10° 159° (SSE) 2,858 6.3 -10.8°
Sets 18:04:40 0° 158° (SSE) 3,787 6.9 -11.2°
